EW2546 Weather Reports


Display with metric or nautical units.
time (UTC)temp
F
wind
direction
speed
MPH
gust
MPH
rain 1hr
in
rain 24hr
in
rain mn
in
humidity
%
barometer
mb
20260507230525 57 313 0.0 9.0 0.00 0.14 0.09 41 1004.8
20260507230056 58 0 2.0 9.0 0.00 0.14 0.09 41 1004.8
20260507225526 58 0 0.0 6.0 0.00 0.14 0.09 36 1004.7
20260507225025 58 0 1.0 6.0 0.00 0.14 0.09 36 1004.7
20260507224542 58 300 0.0 5.0 0.00 0.14 0.09 39 1004.6
20260507224028 58 0 0.0 5.0 0.00 0.14 0.09 34 1004.5
20260507223532 58 0 0.0 6.0 0.00 0.14 0.09 37 1004.5
20260507223119 59 0 0.0 9.0 0.00 0.14 0.09 35 1004.4
20260507222523 59 291 2.0 9.0 0.00 0.14 0.09 33 1004.3
20260507222024 60 0 2.0 9.0 0.00 0.14 0.09 33 1004.3
20260507221534 59 0 0.0 9.0 0.00 0.14 0.09 36 1004.2
20260507221024 60 284 0.0 8.0 0.00 0.14 0.09 34 1004.2
20260507220524 60 253 1.0 8.0 0.00 0.14 0.09 34 1004.2
20260507220043 60 304 3.0 7.0 0.00 0.14 0.09 35 1004.2
20260507215527 59 0 0.0 8.0 0.00 0.20 0.09 34 1004.3
20260507215024 60 0 1.0 8.0 0.00 0.20 0.09 35 1004.1
20260507214548 60 315 2.0 11.0 0.00 0.20 0.09 36 1004.2
20260507214025 60 0 3.0 11.0 0.00 0.20 0.09 37 1004.2
20260507213525 61 0 0.0 6.0 0.00 0.20 0.09 34 1004.2
20260507213039 62 0 0.0 6.0 0.00 0.20 0.09 32 1004.1
20260507212524 62 0 1.0 8.0 0.00 0.20 0.09 32 1004.0
20260507212024 62 333 0.0 9.0 0.00 0.20 0.09 32 1004.2
20260507211538 62 310 1.0 9.0 0.00 0.20 0.09 31 1004.1
20260507211024 63 259 2.0 7.0 0.00 0.20 0.09 33 1004.0
20260507210524 63 0 1.0 7.0 0.00 0.20 0.09 31 1004.0
20260507210042 63 305 2.0 7.0 0.00 0.20 0.09 31 1004.1
20260507205531 63 302 1.0 10.0 0.00 0.27 0.09 33 1003.9
20260507205028 62 297 1.0 10.0 0.00 0.27 0.09 33 1003.9
20260507204541 62 288 2.0 9.0 0.00 0.27 0.09 33 1003.8
20260507204024 62 309 1.0 5.0 0.00 0.27 0.09 37 1003.8
20260507203528 62 274 0.0 5.0 0.00 0.27 0.09 35 1003.8
20260507203040 62 297 2.0 8.0 0.00 0.27 0.09 36 1003.8
20260507202526 63 0 1.0 9.0 0.00 0.27 0.09 34 1003.7
20260507202024 64 292 3.0 17.0 0.00 0.27 0.09 35 1003.8
20260507201542 64 260 3.0 17.0 0.00 0.27 0.09 34 1003.8
20260507201034 64 304 2.0 9.0 0.00 0.27 0.09 34 1003.7
20260507200525 64 302 2.0 12.0 0.00 0.27 0.09 34 1003.8
20260507200052 64 269 1.0 12.0 0.00 0.27 0.09 33 1003.7
20260507195524 64 0 1.0 12.0 0.00 0.44 0.09 29 1003.6
20260507195024 64 185 2.0 10.0 0.00 0.44 0.09 29 1003.7
20260507194535 64 335 3.0 15.0 0.00 0.44 0.09 30 1003.7
20260507194024 64 315 3.0 15.0 0.00 0.44 0.09 28 1003.8
20260507193524 64 286 2.0 9.0 0.00 0.44 0.09 30 1003.8
20260507193044 64 288 4.0 9.0 0.00 0.44 0.09 31 1003.8
20260507192525 63 0 3.0 11.0 0.00 0.44 0.09 33 1003.9
20260507192024 63 303 2.0 11.0 0.00 0.44 0.09 38 1003.9
20260507191542 63 313 4.0 9.0 0.00 0.44 0.09 40 1004.0
20260507191023 63 299 2.0 11.0 0.00 0.44 0.09 42 1003.9
20260507190525 63 0 4.0 11.0 0.00 0.44 0.09 43 1003.9
20260507190041 63 243 3.0 10.0 0.00 0.44 0.09 46 1004.0
20260507185525 61 255 3.0 10.0 0.00 0.47 0.09 46 1004.0
20260507185024 59 0 2.0 11.0 0.00 0.47 0.09 49 1004.0
20260507184538 60 0 1.0 12.0 0.00 0.47 0.09 52 1004.0
20260507184024 60 294 2.0 12.0 0.00 0.47 0.09 49 1004.0
20260507183524 60 0 0.0 9.0 0.00 0.47 0.09 54 1004.0
20260507183041 60 314 2.0 9.0 0.00 0.47 0.09 49 1004.1
20260507182524 61 0 0.0 9.0 0.00 0.47 0.09 50 1004.0
20260507182025 61 0 2.0 10.0 0.00 0.47 0.09 52 1004.0
20260507181537 62 299 4.0 10.0 0.00 0.47 0.09 48 1004.0
20260507181024 62 268 3.0 10.0 0.00 0.47 0.09 48 1003.9
20260507180530 61 0 1.0 8.0 0.00 0.47 0.09 48 1004.0
20260507180046 62 265 0.0 7.0 0.00 0.47 0.09 45 1004.0
20260507175526 63 0 1.0 9.0 0.00 0.47 0.09 47 1004.2
20260507175027 64 270 1.0 9.0 0.00 0.47 0.09 44 1004.2
20260507174541 63 233 1.0 8.0 0.00 0.47 0.09 45 1004.0
20260507174025 63 247 2.0 8.0 0.00 0.47 0.09 46 1004.2
20260507173525 61 232 0.0 10.0 0.00 0.47 0.09 46 1004.2
20260507173039 60 259 0.0 10.0 0.00 0.47 0.09 48 1004.5
20260507172527 59 278 0.0 6.0 0.00 0.47 0.09 51 1004.4
20260507172026 60 0 0.0 8.0 0.00 0.47 0.09 51 1004.4
20260507171540 60 0 1.0 8.0 0.00 0.47 0.09 47 1004.4
20260507171026 61 303 2.0 7.0 0.00 0.47 0.09 46 1004.5
20260507170526 61 0 1.0 7.0 0.00 0.47 0.09 48 1004.4
20260507170043 61 228 0.0 5.0 0.00 0.47 0.09 50 1004.5
20260507165527 61 0 0.0 3.0 0.00 0.47 0.09 47 1004.5
20260507165027 61 303 0.0 4.0 0.00 0.47 0.09 46 1004.5
20260507164536 61 0 0.0 4.0 0.00 0.47 0.09 49 1004.5
20260507164027 61 267 0.0 7.0 0.00 0.47 0.09 51 1004.6
20260507163529 62 252 0.0 9.0 0.00 0.47 0.09 45 1004.7
20260507163043 61 0 2.0 9.0 0.00 0.47 0.09 45 1004.8
20260507162525 61 0 0.0 6.0 0.00 0.47 0.09 49 1004.7
20260507162028 60 270 0.0 6.0 0.00 0.47 0.09 46 1004.8
20260507161550 60 0 0.0 3.0 0.00 0.47 0.09 50 1005.0
20260507161025 60 0 0.0 3.0 0.00 0.47 0.09 51 1005.0
20260507160526 60 0 0.0 3.0 0.00 0.47 0.09 49 1005.1
20260507160041 60 0 0.0 4.0 0.00 0.47 0.09 53 1005.2
20260507155526 60 0 0.0 7.0 0.00 0.47 0.09 51 1005.3
20260507155029 61 243 1.0 7.0 0.00 0.47 0.09 47 1005.4
20260507154542 62 329 1.0 10.0 0.00 0.47 0.09 51 1005.3
20260507154026 62 0 2.0 10.0 0.00 0.47 0.09 52 1005.4
20260507153526 61 0 0.0 6.0 0.00 0.47 0.09 47 1005.4
20260507153042 61 0 0.0 6.0 0.00 0.47 0.09 54 1005.4
20260507152526 60 203 0.0 4.0 0.00 0.47 0.09 50 1005.4
20260507152026 60 300 1.0 6.0 0.00 0.47 0.09 57 1005.5
20260507151543 59 324 1.0 6.0 0.00 0.47 0.09 56 1005.5
20260507151027 59 357 1.0 5.0 0.00 0.47 0.09 59 1005.5
20260507150530 58 0 0.0 4.0 0.00 0.47 0.09 59 1005.5
20260507150049 58 18 0.0 7.0 0.00 0.47 0.09 58 1005.5
20260507145528 58 0 1.0 7.0 0.00 0.47 0.09 60 1005.8
20260507145026 58 303 1.0 6.0 0.00 0.47 0.09 58 1005.7
20260507144540 58 0 0.0 5.0 0.00 0.47 0.09 59 1005.7
20260507144026 57 325 0.0 5.0 0.00 0.47 0.09 61 1005.7
20260507143528 57 324 0.0 2.0 0.00 0.47 0.09 65 1005.7
20260507143038 57 0 0.0 5.0 0.00 0.47 0.09 62 1005.8
20260507142527 56 0 1.0 6.0 0.00 0.47 0.09 63 1005.9
20260507142025 56 0 0.0 6.0 0.00 0.47 0.09 63 1006.0
20260507141535 56 0 1.0 7.0 0.00 0.47 0.09 63 1006.0
20260507141025 56 0 0.0 7.0 0.00 0.47 0.09 63 1006.0
20260507140528 56 0 2.0 7.0 0.00 0.47 0.09 65 1006.0
20260507140037 55 0 2.0 9.0 0.00 0.47 0.09 63 1006.1
20260507135530 55 313 0.0 9.0 0.00 0.47 0.09 65 1006.1
20260507135026 55 331 3.0 8.0 0.00 0.47 0.09 65 1006.1
20260507134542 55 0 1.0 7.0 0.00 0.47 0.09 65 1006.2
20260507134028 55 0 1.0 5.0 0.00 0.47 0.09 67 1006.2
20260507133530 55 301 1.0 5.0 0.00 0.47 0.09 67 1006.2
20260507133040 54 0 0.0 5.0 0.00 0.47 0.09 70 1006.1
20260507132526 54 0 0.0 7.0 0.00 0.47 0.09 71 1006.2
20260507132025 54 0 0.0 7.0 0.00 0.47 0.09 71 1006.2
20260507131540 53 0 0.0 5.0 0.00 0.47 0.09 71 1006.2
20260507131026 53 267 1.0 5.0 0.00 0.47 0.09 72 1006.2
20260507130527 53 0 0.0 5.0 0.00 0.47 0.09 73 1006.2
20260507130056 52 0 0.0 5.0 0.00 0.47 0.09 74 1006.2
20260507125528 52 0 0.0 5.0 0.00 0.47 0.09 76 1006.3
20260507125023 52 0 0.0 5.0 0.00 0.47 0.09 76 1006.2
20260507124540 51 0 0.0 4.0 0.00 0.47 0.09 79 1006.4
20260507124026 51 0 0.0 6.0 0.00 0.47 0.09 81 1006.4
20260507123523 50 0 0.0 6.0 0.00 0.47 0.09 82 1006.5
20260507123057 50 0 0.0 1.0 0.00 0.47 0.09 85 1006.5
20260507122526 49 0 0.0 1.0 0.00 0.47 0.09 83 1006.3
20260507122026 49 0 0.0 3.0 0.00 0.47 0.09 86 1006.4
20260507121550 48 0 0.0 5.0 0.00 0.47 0.09 89 1006.5
20260507121026 47 0 1.0 5.0 0.00 0.47 0.09 89 1006.4
20260507120533 47 249 0.0 3.0 0.00 0.47 0.09 92 1006.5
20260507120041 46 0 0.0 3.0 0.00 0.47 0.09 92 1006.6
20260507115526 46 0 1.0 3.0 0.00 0.47 0.09 94 1006.6
20260507115029 46 0 0.0 2.0 0.00 0.47 0.09 94 1006.5
20260507114539 45 0 0.0 2.0 0.00 0.47 0.09 94 1006.5
20260507114025 45 0 0.0 0.0 0.00 0.47 0.09 94 1006.6
20260507113526 45 0 0.0 0.0 0.00 0.47 0.09 94 1006.5
20260507113040 45 0 0.0 0.0 0.00 0.47 0.09 95 1006.6
20260507112527 45 0 0.0 0.0 0.00 0.47 0.09 95 1006.8
20260507112026 45 0 0.0 0.0 0.00 0.47 0.09 95 1006.8
20260507111538 45 0 0.0 0.0 0.00 0.47 0.09 95 1006.9
20260507111026 45 0 0.0 0.0 0.00 0.47 0.09 95 1006.9
20260507110526 45 0 0.0 0.0 0.00 0.47 0.09 95 1006.6
20260507110036 45 0 0.0 0.0 0.00 0.47 0.09 95 1006.7
20260507105525 45 0 0.0 0.0 0.00 0.47 0.09 95 1006.9
20260507105026 45 0 0.0 0.0 0.00 0.47 0.09 95 1007.1
20260507104536 45 0 0.0 0.0 0.00 0.47 0.09 95 1007.0
20260507104028 44 0 0.0 0.0 0.00 0.47 0.09 95 1006.9
20260507103526 44 0 0.0 0.0 0.00 0.47 0.09 95 1006.8
20260507103040 44 0 0.0 0.0 0.00 0.47 0.09 95 1007.2
20260507102528 44 0 0.0 0.0 0.00 0.47 0.09 95 1006.7
20260507102026 44 0 0.0 0.0 0.00 0.47 0.09 95 1006.7
20260507101541 44 0 0.0 0.0 0.00 0.47 0.09 95 1006.9
20260507101028 44 0 0.0 0.0 0.00 0.47 0.09 95 1006.7
20260507100525 44 0 0.0 0.0 0.00 0.47 0.09 95 1007.1
20260507100049 44 0 0.0 0.0 0.00 0.47 0.09 95 1006.9
20260507095525 44 0 0.0 0.0 0.00 0.47 0.09 95 1006.6
20260507095025 44 0 0.0 0.0 0.00 0.47 0.09 95 1006.2
20260507094537 44 0 0.0 0.0 0.00 0.47 0.09 94 1006.2
20260507094025 44 0 0.0 0.0 0.00 0.47 0.09 94 1006.3
20260507093527 44 0 0.0 0.0 0.00 0.47 0.09 94 1006.1
20260507093035 44 0 0.0 0.0 0.00 0.47 0.09 94 1005.9
20260507092528 44 0 0.0 0.0 0.00 0.47 0.09 94 1006.0
20260507092025 44 0 0.0 0.0 0.00 0.47 0.09 94 1006.0
20260507091541 45 0 0.0 0.0 0.00 0.47 0.09 94 1006.1
20260507091026 45 0 0.0 0.0 0.00 0.47 0.09 94 1006.5
20260507090525 45 0 0.0 0.0 0.00 0.47 0.09 94 1006.4
20260507090039 45 0 0.0 0.0 0.00 0.47 0.09 94 1006.3
20260507085525 45 0 0.0 0.0 0.00 0.47 0.09 94 1006.1
20260507085027 45 0 0.0 0.0 0.00 0.47 0.09 94 1006.4
20260507084545 45 0 0.0 0.0 0.00 0.47 0.09 94 1006.6
20260507084026 45 0 0.0 0.0 0.00 0.47 0.09 94 1006.2
20260507083525 45 0 0.0 1.0 0.00 0.47 0.09 94 1006.2
20260507083051 45 0 0.0 1.0 0.00 0.47 0.09 94 1006.3
20260507082526 45 0 0.0 1.0 0.00 0.47 0.09 94 1006.1
20260507082025 46 0 0.0 1.0 0.00 0.47 0.09 94 1006.4
20260507081537 46 0 0.0 1.0 0.00 0.47 0.09 94 1006.2
20260507081027 46 0 0.0 0.0 0.00 0.47 0.09 94 1006.0
20260507080527 46 0 0.0 0.0 0.00 0.47 0.09 94 1006.0
20260507080050 46 0 0.0 4.0 0.00 0.47 0.09 94 1005.9
20260507075528 46 0 0.0 4.0 0.00 0.47 0.09 93 1006.1
20260507075026 46 0 0.0 4.0 0.00 0.47 0.09 94 1005.7
20260507074541 47 0 0.0 4.0 0.00 0.47 0.09 94 1006.0
20260507074025 47 0 0.0 4.0 0.00 0.47 0.09 95 1005.8
20260507073529 48 0 0.0 1.0 0.00 0.47 0.09 95 1005.8
20260507073049 48 0 0.0 1.0 0.00 0.47 0.09 95 1006.0
20260507072525 48 0 0.0 0.0 0.00 0.47 0.09 95 1005.8
20260507072025 48 0 0.0 0.0 0.00 0.47 0.09 95 1005.9
20260507071537 48 0 0.0 0.0 0.00 0.47 0.09 94 1005.9
20260507071025 48 0 0.0 0.0 0.00 0.47 0.09 95 1005.6
20260507070527 48 0 0.0 0.0 0.00 0.47 0.09 95 1005.6
20260507070043 48 0 0.0 0.0 0.00 0.47 0.09 95 1005.5
20260507065525 48 0 0.0 0.0 0.00 0.47 0.09 95 1005.4
20260507065025 48 0 0.0 0.0 0.00 0.47 0.09 95 1005.4
20260507064541 48 0 0.0 0.0 0.00 0.47 0.09 94 1005.5
20260507064026 48 0 0.0 0.0 0.00 0.47 0.09 94 1005.4
20260507063529 48 0 0.0 0.0 0.00 0.47 0.09 94 1005.3
20260507063046 49 0 0.0 0.0 0.00 0.47 0.09 94 1005.1
20260507062525 49 0 0.0 0.0 0.00 0.47 0.09 94 1005.1
20260507062025 49 0 0.0 0.0 0.00 0.47 0.09 95 1004.9
20260507061539 49 0 0.0 0.0 0.01 0.47 0.09 95 1005.0
20260507061028 49 0 0.0 0.0 0.01 0.47 0.09 95 1005.1
20260507060527 49 0 0.0 0.0 0.01 0.47 0.09 95 1005.2
20260507060036 49 0 0.0 0.0 0.01 0.47 0.09 94 1005.2
20260507055525 49 0 0.0 0.0 0.01 0.47 0.09 94 1005.1
20260507055026 49 0 0.0 0.0 0.01 0.47 0.09 94 1005.0
20260507054540 49 0 0.0 0.0 0.01 0.47 0.09 94 1005.0
20260507054025 49 0 0.0 0.0 0.01 0.47 0.09 94 1004.9
20260507053526 49 0 0.0 4.0 0.01 0.47 0.09 94 1004.9
20260507053037 50 0 0.0 5.0 0.02 0.47 0.09 94 1005.0
20260507052525 50 359 0.0 5.0 0.03 0.47 0.09 94 1004.9
20260507052026 51 301 0.0 2.0 0.05 0.47 0.09 95 1004.9
20260507051542 51 0 0.0 0.0 0.07 0.46 0.08 95 1005.0
20260507051025 51 0 0.0 7.0 0.08 0.46 0.08 95 1004.9
20260507050528 51 0 0.0 7.0 0.08 0.46 0.08 94 1004.9
20260507050040 51 0 1.0 7.0 0.08 0.46 0.08 94 1004.8
20260507045525 51 0 0.0 5.0 0.08 0.46 0.08 95 1004.9
20260507045026 52 0 0.0 6.0 0.08 0.46 0.08 95 1004.9
20260507044540 52 264 0.0 6.0 0.09 0.46 0.08 95 1004.9
20260507044025 52 0 0.0 5.0 0.09 0.46 0.08 95 1004.8
20260507043525 52 0 0.0 7.0 0.10 0.46 0.08 95 1004.8
20260507043038 52 0 0.0 8.0 0.09 0.45 0.07 95 1004.8
20260507042524 52 315 1.0 8.0 0.08 0.44 0.06 95 1004.8
20260507042025 53 305 4.0 8.0 0.05 0.41 0.03 95 1005.0
20260507041547 53 301 2.0 8.0 0.03 0.39 0.01 95 1005.2
20260507041025 53 0 0.0 2.0 0.02 0.38 0.00 95 1004.8
20260507040525 52 0 0.0 0.0 0.02 0.38 0.00 95 1004.4
20260507040041 52 0 0.0 0.0 0.02 0.38 0.00 95 1004.3
20260507035525 52 0 0.0 0.0 0.02 0.38 0.38 95 1004.2
20260507035026 52 0 0.0 0.0 0.02 0.38 0.38 95 1004.3
20260507034539 52 0 0.0 0.0 0.01 0.37 0.37 95 1004.2
20260507034025 52 0 0.0 4.0 0.01 0.37 0.37 95 1004.2
20260507033525 52 0 0.0 4.0 0.00 0.36 0.36 95 1004.3
20260507033039 52 0 0.0 0.0 0.00 0.36 0.36 95 1004.3
20260507032528 52 0 0.0 0.0 0.00 0.36 0.36 95 1003.8
20260507032025 52 0 0.0 0.0 0.00 0.36 0.36 95 1003.9
20260507031537 52 0 0.0 0.0 0.00 0.36 0.36 95 1003.8
20260507031028 52 0 0.0 0.0 0.00 0.36 0.36 95 1003.9
20260507030525 52 0 0.0 3.0 0.00 0.36 0.36 95 1003.7
20260507030036 52 0 0.0 3.0 0.00 0.36 0.36 95 1003.7
20260507025525 52 0 0.0 3.0 0.00 0.36 0.36 95 1003.8
20260507025025 52 0 0.0 3.0 0.00 0.36 0.36 95 1003.9
20260507024544 52 0 0.0 3.0 0.00 0.36 0.36 95 1003.9
20260507024024 52 0 0.0 4.0 0.01 0.36 0.36 95 1004.0
20260507023536 52 0 0.0 4.0 0.01 0.36 0.36 95 1004.0
20260507023042 52 0 0.0 3.0 0.02 0.36 0.36 95 1004.0
20260507022529 52 0 0.0 1.0 0.02 0.36 0.36 95 1004.0
20260507022026 52 0 0.0 3.0 0.02 0.36 0.36 95 1004.2
20260507021537 52 0 0.0 3.0 0.02 0.36 0.36 95 1004.2
20260507021028 52 0 0.0 4.0 0.02 0.36 0.36 94 1004.3
20260507020526 52 0 0.0 4.0 0.03 0.36 0.36 94 1004.2
20260507020055 52 0 0.0 3.0 0.03 0.36 0.36 94 1004.2
20260507015524 52 0 0.0 7.0 0.03 0.36 0.36 94 1004.3
20260507015024 52 0 1.0 7.0 0.03 0.36 0.36 94 1004.4
20260507014544 52 0 0.0 3.0 0.03 0.36 0.36 94 1004.5
20260507014026 52 0 0.0 4.0 0.02 0.35 0.35 94 1004.5
20260507013525 52 0 0.0 7.0 0.02 0.35 0.35 94 1004.5
20260507013037 52 0 0.0 8.0 0.01 0.34 0.34 94 1004.6
20260507012525 52 0 0.0 9.0 0.01 0.34 0.34 94 1004.6
20260507012025 52 0 0.0 9.0 0.01 0.34 0.34 95 1004.7
20260507011536 52 0 0.0 7.0 0.01 0.34 0.34 94 1004.7
20260507011024 52 199 0.0 7.0 0.01 0.34 0.34 94 1004.6
20260507010526 52 0 0.0 7.0 0.00 0.33 0.33 94 1004.7
20260507010042 52 0 0.0 8.0 0.00 0.33 0.33 94 1004.7
20260507005528 52 147 1.0 8.0 0.00 0.33 0.33 94 1004.7
20260507005024 52 0 0.0 8.0 0.00 0.33 0.33 94 1004.7
20260507004543 52 0 0.0 8.0 0.00 0.33 0.33 94 1004.9
20260507004026 52 180 2.0 8.0 0.00 0.33 0.33 94 1004.8
20260507003532 52 215 1.0 8.0 0.00 0.33 0.33 94 1004.8